GW7057 Weather Reports


Display with metric or nautical units.
time (UTC)temp
F
wind
direction
speed
MPH
gust
MPH
rain 1hr
in
rain 24hr
in
rain mn
in
humidity
%
barometer
mb
20260507083938 48 43 1.0 2.0 0.07 0.06 0.06 96 1005.2
20260507083434 48 57 0.0 2.0 0.05 0.05 0.05 96 1005.4
20260507082931 48 64 0.0 2.0 0.05 0.04 0.04 96 1005.6
20260507082427 48 248 2.0 2.0 0.05 0.04 0.04 96 1005.4
20260507081924 48 287 0.0 3.0 0.02 0.04 0.04 96 1005.4
20260507081420 48 170 1.0 4.0 0.00 0.03 0.03 96 1005.2
20260507080917 48 220 2.0 3.0 0.00 0.03 0.03 96 1005.3
20260507080413 48 214 0.0 4.0 0.00 0.03 0.03 96 1005.6
20260507075908 49 211 0.0 3.0 0.02 0.03 0.03 96 1005.5
20260507075405 49 311 2.0 2.0 0.05 0.03 0.03 96 1005.3
20260507074901 49 251 2.0 3.0 0.02 0.03 0.03 96 1005.0
20260507074358 49 256 0.0 2.0 0.02 0.02 0.02 96 1004.9
20260507073856 49 267 0.0 2.0 0.02 0.02 0.02 96 1005.2
20260507073352 49 277 2.0 2.0 0.00 0.02 0.02 95 1005.0
20260507072849 49 147 0.0 3.0 0.00 0.02 0.02 95 1005.2
20260507072347 49 155 1.0 2.0 0.00 0.02 0.02 95 1004.8
20260507071844 49 10 0.0 2.0 0.00 0.02 0.02 95 1005.2
20260507071341 49 206 1.0 6.0 0.02 0.02 0.02 94 1005.2
20260507070837 49 262 2.0 3.0 0.05 0.02 0.02 94 1005.1
20260507070335 50 156 1.0 3.0 0.05 0.02 0.02 94 1005.0
20260507065831 50 285 3.0 6.0 0.02 0.01 0.01 93 1004.7
20260507065328 50 354 2.0 4.0 0.00 0.01 0.01 93 1004.8
20260507064825 50 80 0.0 2.0 0.00 0.01 0.01 93 1004.7
20260507064324 50 26 1.0 3.0 0.00 0.01 0.01 93 1004.4
20260507063821 50 69 0.0 2.0 0.00 0.01 0.01 93 1004.2
20260507063318 50 58 1.0 4.0 0.00 0.01 0.01 93 1004.3
20260507062815 50 226 2.0 3.0 0.00 0.01 0.01 93 1004.1
20260507062312 50 224 0.0 3.0 0.00 0.01 0.01 93 1004.3
20260507061810 50 189 2.0 3.0 0.00 0.01 0.01 93 1004.3
20260507061308 50 34 0.0 3.0 0.00 0.01 0.01 94 1004.3
20260507060806 50 16 0.0 4.0 0.00 0.01 0.01 94 1004.6
20260507060302 50 4 0.0 2.0 0.00 0.01 0.01 94 1004.9
20260507055758 50 76 2.0 2.0 0.00 0.01 0.01 94 1004.8
20260507055254 50 128 0.0 3.0 0.00 0.01 0.01 94 1004.8
20260507054750 50 253 2.0 2.0 0.00 0.01 0.01 94 1004.6
20260507054247 50 328 1.0 3.0 0.00 0.01 0.01 94 1004.7
20260507053744 50 302 2.0 9.0 0.00 0.01 0.01 94 1004.8
20260507053242 50 345 0.0 2.0 0.00 0.01 0.01 94 1004.7
20260507052741 50 304 1.0 2.0 0.00 0.01 0.01 94 1004.9
20260507052237 50 338 1.0 4.0 0.00 0.01 0.01 94 1004.9
20260507051735 51 265 2.0 2.0 0.00 0.01 0.01 95 1004.9
20260507051231 51 13 0.0 2.0 0.00 0.01 0.01 94 1005.1
20260507050728 51 223 0.0 3.0 0.00 0.01 0.01 95 1005.3
20260507050225 51 181 1.0 4.0 0.00 0.01 0.01 95 1005.3
20260507045722 51 346 2.0 2.0 0.00 0.01 0.01 95 1005.0
20260507045218 51 244 2.0 6.0 0.00 0.01 0.01 95 1004.8
20260507044716 51 214 2.0 3.0 0.00 0.01 0.01 95 1005.2
20260507044212 52 259 2.0 2.0 0.00 0.01 0.01 95 1004.9
20260507043708 52 5 1.0 2.0 0.00 0.01 0.01 95 1004.9
20260507043205 52 212 0.0 2.0 0.00 0.01 0.01 95 1004.8
20260507042701 52 235 0.0 2.0 0.02 0.01 0.01 94 1005.0
20260507042156 52 319 2.0 4.0 0.02 0.01 0.01 94 1005.1
20260507041654 52 264 4.0 4.0 0.00 0.00 0.00 94 1005.1
20260507041150 53 266 2.0 4.0 0.02 0.00 0.00 95 1005.5
20260507040647 53 243 2.0 4.0 0.02 0.00 0.00 95 1005.1
20260507040144 53 337 2.0 4.0 0.00 0.00 0.00 94 1004.8
20260507035639 54 302 3.0 6.0 0.00 0.23 0.23 94 1005.0
20260507035136 54 49 2.0 5.0 0.00 0.23 0.23 95 1004.7
20260507034633 55 285 4.0 4.0 0.02 0.23 0.23 94 1005.1
20260507034130 55 245 0.0 3.0 0.02 0.23 0.23 94 1005.3
20260507033629 55 291 2.0 4.0 0.00 0.22 0.22 94 1005.1
20260507033125 55 259 2.0 3.0 0.00 0.22 0.22 94 1005.1
20260507032623 55 220 2.0 4.0 0.00 0.22 0.22 94 1005.2
20260507032119 55 236 2.0 5.0 0.00 0.22 0.22 94 1005.0
20260507031615 55 209 2.0 5.0 0.00 0.22 0.22 93 1005.1
20260507031112 55 199 6.0 6.0 0.00 0.22 0.22 93 1005.1
20260507030609 56 261 2.0 5.0 0.00 0.22 0.22 93 1004.9
20260507030107 56 152 5.0 10.0 0.00 0.22 0.22 94 1004.9
20260507025604 56 248 2.0 7.0 0.02 0.22 0.22 93 1005.0
20260507025100 57 193 2.0 7.0 0.02 0.22 0.22 94 1004.7
20260507024559 57 222 4.0 8.0 0.00 0.22 0.22 95 1004.6
20260507024055 58 315 0.0 2.0 0.00 0.22 0.22 95 1004.5
20260507023551 58 230 4.0 8.0 0.00 0.22 0.22 95 1004.7
20260507023049 58 180 2.0 6.0 0.00 0.22 0.22 96 1004.6
20260507022545 58 212 4.0 4.0 0.00 0.22 0.22 96 1004.5
20260507022040 58 230 3.0 4.0 0.00 0.22 0.22 96 1004.4
20260507021537 58 237 4.0 8.0 0.00 0.22 0.22 96 1004.6
20260507021033 58 279 2.0 8.0 0.00 0.22 0.22 96 1004.0
20260507020531 58 225 2.0 5.0 0.00 0.22 0.22 96 1004.0
20260507020027 58 270 1.0 4.0 0.00 0.22 0.22 96 1004.2
20260507015526 58 330 2.0 9.0 0.00 0.22 0.22 96 1004.3
20260507015023 58 228 4.0 6.0 0.00 0.22 0.22 96 1004.5
20260507014519 58 204 4.0 8.0 0.00 0.22 0.22 97 1004.4
20260507014015 57 216 3.0 6.0 0.00 0.22 0.22 96 1004.1
20260507013512 57 234 5.0 6.0 0.00 0.22 0.22 97 1004.2
20260507013009 57 235 4.0 8.0 0.00 0.22 0.22 96 1004.3
20260507012506 57 222 5.0 9.0 0.00 0.22 0.22 97 1004.3
20260507012003 57 232 6.0 12.0 0.00 0.22 0.22 97 1004.2
20260507011500 57 251 4.0 4.0 0.00 0.22 0.22 96 1004.1
20260507010955 57 228 2.0 6.0 0.00 0.22 0.22 96 1003.9
20260507010450 57 153 4.0 6.0 0.00 0.22 0.22 96 1003.7
20260507005947 57 212 3.0 7.0 0.00 0.22 0.22 96 1004.0
20260507005445 57 232 5.0 10.0 0.00 0.22 0.22 96 1004.2
20260507004941 57 216 6.0 7.0 0.00 0.22 0.22 96 1004.3
20260507004438 57 210 2.0 9.0 0.00 0.22 0.22 96 1004.4
20260507003936 57 229 5.0 7.0 0.00 0.22 0.22 96 1004.3
20260507003430 57 236 8.0 12.0 0.00 0.22 0.22 96 1004.2
20260507002926 57 256 5.0 8.0 0.00 0.22 0.22 96 1004.0
20260507002422 57 219 2.0 5.0 0.00 0.22 0.22 96 1004.4
20260507001919 57 90 2.0 9.0 0.00 0.22 0.22 96 1004.3
20260507001416 57 305 2.0 13.0 0.00 0.22 0.22 96 1004.3
20260507000914 57 243 4.0 14.0 0.00 0.22 0.22 96 1004.2
20260507000409 57 307 2.0 6.0 0.00 0.22 0.22 96 1004.2
20260506235905 57 216 6.0 11.0 0.00 0.22 0.22 95 1004.1
20260506235402 57 232 4.0 11.0 0.00 0.22 0.22 95 1004.1
20260506234858 57 229 6.0 11.0 0.00 0.22 0.22 95 1004.2
20260506234356 57 218 5.0 8.0 0.00 0.22 0.22 95 1004.0
20260506233853 57 248 2.0 7.0 0.00 0.22 0.22 95 1003.8
20260506233349 57 184 2.0 10.0 0.00 0.22 0.22 95 1003.8
20260506232846 57 322 2.0 7.0 0.00 0.22 0.22 95 1003.9
20260506232342 57 220 4.0 6.0 0.00 0.22 0.22 95 1003.8
20260506231838 57 238 3.0 7.0 0.00 0.22 0.22 95 1003.8
20260506231336 57 186 1.0 6.0 0.00 0.22 0.22 95 1003.8
20260506230833 57 220 4.0 6.0 0.00 0.22 0.22 95 1004.0
20260506230330 57 146 3.0 5.0 0.00 0.22 0.22 95 1003.8
20260506225826 57 216 1.0 4.0 0.02 0.22 0.22 95 1003.6
20260506225324 57 205 2.0 5.0 0.05 0.22 0.22 95 1003.5
20260506224820 57 195 4.0 7.0 0.02 0.21 0.21 95 1003.6
20260506224318 57 237 6.0 6.0 0.02 0.21 0.21 95 1003.7
20260506223814 58 135 2.0 6.0 0.05 0.21 0.21 95 1003.9
20260506223309 57 231 9.0 10.0 0.07 0.21 0.21 95 1003.8
20260506222807 57 223 3.0 8.0 0.07 0.20 0.20 95 1003.7
20260506222305 57 225 5.0 6.0 0.09 0.20 0.20 95 1003.6
20260506221800 57 119 2.0 8.0 0.07 0.19 0.19 95 1003.6
20260506221258 57 213 4.0 6.0 0.02 0.18 0.18 95 1003.7
20260506220756 58 117 2.0 4.0 0.00 0.18 0.18 95 1003.9
20260506220255 58 150 4.0 6.0 0.00 0.18 0.18 95 1003.9
20260506215753 58 155 0.0 5.0 0.00 0.18 0.18 95 1003.8
20260506215248 58 49 1.0 5.0 0.02 0.18 0.18 95 1003.9
20260506214744 58 196 2.0 6.0 0.00 0.17 0.17 95 1003.9
20260506214242 58 128 2.0 5.0 0.00 0.17 0.17 95 1003.8
20260506213740 58 115 3.0 8.0 0.02 0.17 0.17 94 1004.0
20260506213237 58 261 3.0 5.0 0.05 0.17 0.17 94 1004.0
20260506212734 58 159 4.0 6.0 0.05 0.17 0.17 94 1004.2
20260506212230 58 170 3.0 4.0 0.07 0.17 0.17 94 1004.1
20260506211725 58 154 2.0 4.0 0.07 0.16 0.16 94 1004.0
20260506211221 58 81 2.0 7.0 0.07 0.15 0.15 94 1004.3
20260506210719 58 136 5.0 5.0 0.02 0.15 0.15 94 1004.3
20260506210216 58 217 3.0 5.0 0.05 0.14 0.14 93 1004.3
20260506205713 58 200 4.0 7.0 0.05 0.14 0.14 93 1004.6
20260506205213 58 134 2.0 6.0 0.02 0.13 0.13 93 1004.3
20260506204711 58 248 3.0 12.0 0.02 0.13 0.13 93 1004.4
20260506204208 58 165 3.0 4.0 0.00 0.13 0.13 93 1004.5
20260506203706 58 134 3.0 7.0 0.00 0.13 0.13 92 1004.5
20260506203203 58 154 5.0 6.0 0.00 0.13 0.13 92 1004.5
20260506202701 58 133 2.0 4.0 0.00 0.13 0.13 93 1004.7
20260506202156 58 140 8.0 9.0 0.00 0.13 0.13 93 1004.4
20260506201654 58 135 3.0 8.0 0.00 0.13 0.13 92 1004.6
20260506201150 58 227 4.0 5.0 0.02 0.13 0.13 92 1004.8
20260506200647 58 202 3.0 6.0 0.00 0.12 0.12 92 1004.6
20260506200144 58 172 3.0 8.0 0.00 0.12 0.12 92 1004.7
20260506195640 58 165 3.0 13.0 0.00 0.12 0.12 92 1004.7
20260506195137 58 153 3.0 8.0 0.00 0.12 0.12 92 1004.7
20260506194634 58 133 3.0 7.0 0.00 0.12 0.12 92 1004.8
20260506194130 58 235 3.0 6.0 0.00 0.12 0.12 92 1005.0
20260506193628 58 159 7.0 14.0 0.00 0.12 0.12 92 1005.1
20260506193125 58 195 6.0 8.0 0.00 0.12 0.12 92 1005.0
20260506192622 58 116 3.0 9.0 0.00 0.12 0.12 92 1005.0
20260506192118 58 171 2.0 10.0 0.02 0.12 0.12 92 1004.9
20260506191615 58 211 2.0 4.0 0.02 0.12 0.12 92 1005.0
20260506191110 58 303 2.0 6.0 0.02 0.12 0.12 92 1005.1
20260506190609 58 146 2.0 5.0 0.07 0.12 0.12 92 1005.1
20260506190105 58 124 9.0 11.0 0.05 0.11 0.11 92 1005.2
20260506185602 58 179 2.0 5.0 0.05 0.11 0.11 92 1005.3
20260506185058 58 162 3.0 6.0 0.05 0.10 0.10 92 1005.2
20260506184556 58 98 2.0 8.0 0.05 0.10 0.10 92 1005.0
20260506184053 59 113 4.0 9.0 0.07 0.09 0.09 91 1005.0
20260506183549 59 119 4.0 8.0 0.09 0.09 0.09 91 1005.0
20260506183046 59 73 0.0 5.0 0.14 0.08 0.08 90 1005.2
20260506182543 60 150 8.0 8.0 0.14 0.07 0.07 89 1005.4
20260506182040 60 126 3.0 4.0 0.12 0.06 0.06 89 1005.5
20260506181538 60 143 2.0 5.0 0.09 0.05 0.05 87 1005.5
20260506181035 60 302 2.0 5.0 0.07 0.04 0.04 86 1005.7
20260506180531 61 140 2.0 4.0 0.07 0.03 0.03 86 1005.8
20260506180028 61 137 4.0 9.0 0.05 0.03 0.03 84 1006.2
20260506175525 61 149 3.0 5.0 0.02 0.02 0.02 84 1006.1
20260506175021 61 231 4.0 8.0 0.05 0.02 0.02 83 1005.9
20260506174520 61 123 2.0 11.0 0.05 0.02 0.02 81 1006.2
20260506174015 62 226 10.0 12.0 0.05 0.01 0.01 79 1006.2
20260506173513 63 161 5.0 12.0 0.05 0.01 0.01 77 1006.4
20260506173010 64 157 0.0 9.0 0.00 0.00 0.00 75 1006.6
20260506172508 65 217 5.0 17.0 0.00 0.00 0.00 71 1006.3
20260506172003 66 152 7.0 15.0 0.00 0.00 0.00 67 1006.1
20260506171501 66 357 4.0 16.0 0.00 0.00 0.00 65 1006.2
20260506170958 67 160 6.0 12.0 0.00 0.00 0.00 64 1005.9
20260506170455 67 163 3.0 8.0 0.00 0.00 0.00 63 1005.9
20260506165953 68 122 3.0 9.0 0.00 0.00 0.00 63 1005.9
20260506165452 68 191 4.0 9.0 0.00 0.00 0.00 62 1005.9
20260506164947 68 198 5.0 7.0 0.00 0.00 0.00 62 1005.9
20260506164444 68 235 12.0 14.0 0.00 0.00 0.00 61 1006.1
20260506163942 68 178 4.0 12.0 0.00 0.00 0.00 61 1005.9
20260506163437 69 214 8.0 13.0 0.00 0.00 0.00 60 1005.9
20260506162932 69 263 2.0 14.0 0.00 0.00 0.00 60 1005.8
20260506162430 69 244 7.0 8.0 0.00 0.00 0.00 60 1006.1
20260506161927 68 225 5.0 10.0 0.00 0.00 0.00 60 1006.3
20260506161425 68 149 13.0 15.0 0.00 0.00 0.00 60 1006.3
20260506160922 68 131 6.0 8.0 0.00 0.00 0.00 60 1006.6
20260506160419 69 130 2.0 7.0 0.00 0.00 0.00 60 1006.5
20260506155917 69 181 5.0 7.0 0.00 0.00 0.00 58 1006.4
20260506155414 69 180 4.0 9.0 0.00 0.00 0.00 58 1006.5
20260506153531 69 195 3.0 14.0 0.00 0.00 0.00 59 1006.6
20260506153028 69 186 5.0 12.0 0.00 0.00 0.00 59 1006.6
20260506152525 69 214 3.0 17.0 0.00 0.00 0.00 59 1006.8
20260506152023 69 156 4.0 13.0 0.00 0.00 0.00 60 1006.8
20260506151520 68 298 3.0 13.0 0.00 0.00 0.00 61 1006.7
20260506151018 68 18 1.0 14.0 0.00 0.00 0.00 61 1007.0
20260506150514 68 170 4.0 6.0 0.00 0.00 0.00 62 1007.0
20260506150011 68 173 3.0 8.0 0.00 0.00 0.00 63 1007.0
20260506145507 68 134 6.0 13.0 0.00 0.00 0.00 62 1007.0
20260506145005 68 236 2.0 12.0 0.00 0.00 0.00 62 1006.9
20260506144501 67 194 6.0 13.0 0.00 0.00 0.00 63 1007.3
20260506143959 67 148 8.0 9.0 0.00 0.00 0.00 64 1007.4
20260506143456 66 223 5.0 11.0 0.00 0.00 0.00 66 1007.3
20260506142955 66 133 5.0 11.0 0.00 0.00 0.00 66 1007.3
20260506142452 66 151 2.0 7.0 0.00 0.00 0.00 66 1007.3
20260506141950 66 198 6.0 11.0 0.00 0.00 0.00 66 1007.2
20260506141447 66 239 2.0 7.0 0.00 0.00 0.00 67 1007.3
20260506140946 66 221 3.0 7.0 0.00 0.00 0.00 67 1007.2
20260506140442 66 229 6.0 8.0 0.00 0.00 0.00 67 1007.2
20260506135939 66 164 2.0 6.0 0.00 0.00 0.00 68 1007.0
20260506135437 66 257 3.0 13.0 0.00 0.00 0.00 68 1006.9
20260506134932 66 225 4.0 13.0 0.00 0.00 0.00 68 1006.9
20260506134429 65 147 4.0 11.0 0.00 0.00 0.00 68 1006.8
20260506133926 65 166 4.0 9.0 0.00 0.00 0.00 69 1007.0
20260506133423 65 231 5.0 12.0 0.00 0.00 0.00 70 1007.1
20260506132920 65 243 2.0 9.0 0.00 0.00 0.00 70 1007.1
20260506132416 65 222 5.0 15.0 0.00 0.00 0.00 71 1007.2
20260506131914 64 341 2.0 6.0 0.00 0.00 0.00 72 1007.2
20260506131410 64 157 7.0 7.0 0.00 0.00 0.00 73 1007.2
20260506130908 63 216 4.0 12.0 0.00 0.00 0.00 73 1007.3
20260506130404 63 192 1.0 10.0 0.00 0.00 0.00 75 1007.6
20260506125902 62 208 2.0 5.0 0.00 0.00 0.00 76 1007.8
20260506125400 62 198 4.0 13.0 0.00 0.00 0.00 76 1007.7
20260506124858 62 214 3.0 5.0 0.00 0.00 0.00 77 1007.6
20260506124355 61 158 3.0 5.0 0.00 0.00 0.00 77 1007.7
20260506123853 61 180 3.0 5.0 0.00 0.00 0.00 78 1007.8
20260506123351 61 178 2.0 10.0 0.00 0.00 0.00 78 1007.6
20260506122848 61 159 3.0 12.0 0.00 0.00 0.00 78 1007.5
20260506122344 61 258 5.0 12.0 0.00 0.00 0.00 78 1007.8
20260506121843 62 144 5.0 11.0 0.00 0.00 0.00 77 1007.7
20260506121339 61 137 3.0 9.0 0.00 0.00 0.00 78 1007.5
20260506120837 61 139 0.0 4.0 0.00 0.00 0.00 80 1007.9
20260506120334 60 132 5.0 9.0 0.00 0.00 0.00 79 1008.0
20260506115831 60 143 3.0 7.0 0.00 0.00 0.00 79 1008.0
20260506115330 60 126 6.0 10.0 0.00 0.00 0.00 79 1007.6
20260506114827 60 195 3.0 10.0 0.00 0.00 0.00 79 1007.7
20260506114325 60 231 4.0 11.0 0.00 0.00 0.00 80 1007.5
20260506113823 60 152 10.0 12.0 0.00 0.00 0.00 81 1007.6
20260506113320 59 209 1.0 10.0 0.00 0.00 0.00 81 1007.7
20260506112817 59 250 3.0 9.0 0.00 0.00 0.00 82 1007.9
20260506112314 58 207 2.0 10.0 0.00 0.00 0.00 83 1007.9
20260506111811 58 197 6.0 9.0 0.00 0.00 0.00 84 1007.9
20260506111309 58 247 3.0 4.0 0.00 0.00 0.00 84 1007.9
20260506110807 58 153 7.0 11.0 0.00 0.00 0.00 83 1008.2
20260506110304 58 124 4.0 7.0 0.00 0.00 0.00 83 1008.3
20260506105800 58 214 5.0 13.0 0.00 0.00 0.00 83 1008.3
20260506105257 58 144 4.0 8.0 0.00 0.00 0.00 83 1007.9
20260506104755 58 145 4.0 9.0 0.00 0.00 0.00 83 1007.9
20260506104252 58 164 2.0 8.0 0.00 0.00 0.00 84 1007.8
20260506103749 57 146 4.0 7.0 0.00 0.00 0.00 84 1007.7
20260506103247 57 208 3.0 10.0 0.00 0.00 0.00 85 1007.7
20260506102744 57 207 4.0 6.0 0.00 0.00 0.00 85 1007.7
20260506102242 57 147 7.0 7.0 0.00 0.00 0.00 85 1007.7
20260506101739 57 189 2.0 9.0 0.00 0.00 0.00 85 1007.9
20260506101235 57 132 3.0 8.0 0.00 0.00 0.00 85 1007.7
20260506100733 57 174 4.0 12.0 0.00 0.00 0.00 85 1007.6
20260506100231 57 71 1.0 9.0 0.00 0.00 0.00 84 1007.9
20260506095729 57 193 2.0 14.0 0.00 0.00 0.00 84 1007.7
20260506095226 57 175 3.0 7.0 0.00 0.00 0.00 83 1007.7
20260506094723 57 138 9.0 10.0 0.00 0.00 0.00 84 1007.7
20260506094221 57 230 2.0 9.0 0.00 0.00 0.00 84 1007.6
20260506093720 57 167 2.0 7.0 0.00 0.00 0.00 83 1007.8
20260506093216 57 125 5.0 7.0 0.00 0.00 0.00 83 1007.8
20260506092714 57 144 3.0 6.0 0.00 0.00 0.00 83 1007.8
20260506092211 57 226 1.0 11.0 0.00 0.00 0.00 82 1007.7
20260506091709 57 168 5.0 6.0 0.00 0.00 0.00 82 1007.7
20260506091206 58 152 8.0 9.0 0.00 0.00 0.00 82 1007.6
20260506090704 58 169 7.0 9.0 0.00 0.00 0.00 82 1007.8
20260506090200 58 134 10.0 10.0 0.00 0.00 0.00 81 1007.8
20260506085657 58 144 4.0 9.0 0.00 0.00 0.00 81 1007.8
20260506085153 58 116 0.0 10.0 0.00 0.00 0.00 80 1007.8
20260506084650 58 136 2.0 13.0 0.00 0.00 0.00 80 1007.6
20260506084147 58 137 7.0 11.0 0.00 0.00 0.00 81 1007.7